Regional Weather Roundup
Issued by NWS Sterling, VA

Home | Current Version | Previous Version | Text Only | Print | Product List | Glossary Off
Versions: 1 2 3 4 5 6 7 8 9 10 11 12 13 14 15 16 17 18 19 20 21 22 23 24 25 26 27 28 29 30 31 32 33 34 35 36 37 38 39 40 41 42 43 44 45 46 47 48 49

000
ASUS41 KLWX 250311
RWRLWX

REGIONAL WEATHER ROUNDUP
NATIONAL WEATHER SERVICE BALTIMORE MD/WASHINGTON DC
1100 PM EDT MON APR 24 2017

Note: "FAIR" indicates few or no clouds below 12,000 feet
with no significant weather and/or obstructions to visibility.
 TC=TEMPERATURE CELSIUS

 * =Non NWS site. Station does not report precipitation (e.g. rain,
    snow, etc.), thunder, or fog.

DCZ001-MDZ009-015-VAZ040>042-051-053>054-250400-
WASHINGTON METRO

CITY           SKY/WX    TMP DP  RH WIND       PRES   REMARKS
WASHINGTON NAT CLOUDY    54  50  86 NE14      30.00F
DULLES         CLOUDY    51  47  86 N9        30.01F
ANDREWS AFB    CLOUDY    52  49  89 NE13      29.98F
FT BELVOIR     LGT RAIN  54  48  82 NE5       29.99F
QUANTICO       RAIN      55  53  93 NE15G24   29.99F FOG
COLLEGE PARK*  CLOUDY    52  47  82 NE7       30.00F
LEESBURG*      CLOUDY    52  52 100 NE5       30.03S
MANASSAS*        N/A     52  50  93 N8        30.00F

$$

MDZ006>007-011-014-250400-
BALTIMORE METRO

CITY           SKY/WX    TMP DP  RH WIND       PRES   REMARKS
BWI AIRPORT    CLOUDY    52  47  83 NE13      30.02F
MD SCIENCE CTR   N/A     53  44  71 MISG      30.04F
MARTIN STATE   CLOUDY    52  50  93 NE5       30.04F
ANNAPOLIS      CLOUDY    54  50  86 NE9       30.01F
FORT MEADE*    CLOUDY    52  45  76 NE7       30.04F

$$

MDZ012-015-019>023-250400-
MARYLAND EASTERN SHORE

CITY           SKY/WX    TMP DP  RH WIND       PRES   REMARKS
OCEAN CITY     CLOUDY    54  53  97 NE14      29.96F FOG
SALISBURY      LGT RAIN  55  55 100 E16G25    29.96F FOG
BAY BRIDGE AP* CLOUDY    52  48  87 E9        30.01F
CAMBRIDGE*     CLOUDY    54  52  94 SE9G15    29.99R FOG
EASTON*        CLOUDY    54  51  90 E15G21    30.03F

$$

MDZ017>025-250400-
SOUTHERN MARYLAND

CITY           SKY/WX    TMP DP  RH WIND       PRES   REMARKS
PATUXENT RIVER LGT RAIN  54  54 100 VRB6G16   29.96F FOG
ST INIGOES     LGT RAIN  55  54  96 NE18G25   29.94F
LEONARDTOWN*   CLOUDY    54  52  94 E7        29.98S

$$

MDZ003>005-250400-
NORTH CENTRAL MARYLAND

CITY           SKY/WX    TMP DP  RH WIND       PRES   REMARKS
FREDERICK*     CLOUDY    52  52 100 N8        30.05F
HAGERSTOWN APT CLOUDY    51  46  83 N8        30.03F
WESTMINSTER*   NOT AVBL

$$

MDZ501>502-250400-
WESTERN MARYLAND

CITY           SKY/WX    TMP DP  RH WIND       PRES   REMARKS
OAKLAND*         N/A     41  41 100 E18G30    29.98F FOG
CUMBERLAND*    CLOUDY    52  48  87 NW3       30.07F

$$

VAZ025>031-250400-
SHENANDOAH VALLEY

CITY           SKY/WX    TMP DP  RH WIND       PRES   REMARKS
WINCHESTER*    LGT RAIN  46  46 100 N3        30.02F
FRONT ROYAL*   CLOUDY    48  48 100 N6        30.00F
LURAY*         RAIN      48  48 100 N6        29.99F
NEW MARKET*    CLOUDY    48  46  95 N10       29.99F
STAUNTON*      DRIZZLE   47  46  96 N8        29.98F
WAYNESBORO*    CLOUDY    47  47 100 N7        29.96F

$$

WVZ021-048>050-054>055-250400-
EASTERN WEST VIRGINIA PANHANDLE

CITY           SKY/WX    TMP DP  RH WIND       PRES   REMARKS
MARTINSBURG    CLOUDY    51  47  86 N6        30.02F
PETERSBURG*    CLOUDY    51  48  91 N3        30.02F

$$

VAZ036>039-050-250400-
CENTRAL FOOTHILLS

CITY           SKY/WX    TMP DP  RH WIND       PRES   REMARKS
CHARLOTTESVILL HVY RAIN  51  49  92 NE17      29.96F FOG
CULPEPER*      LGT RAIN  52  51  97 N7        30.00S
ORANGE*        RAIN      50  48  93 NE3       29.97F
GORDONSVILLE*  CLOUDY    50  50  99 NE9G16    29.97S
WARRENTON*     CLOUDY    52  48  86 NE9       29.98F

$$

VAZ055>057-250400-
NORTH AND CENTRAL PIEDMONT

CITY           SKY/WX    TMP DP  RH WIND       PRES   REMARKS
FREDERICKSBRG* RAIN      52  52 100 NE5       29.97F
STAFFORD*      HVY RAIN  51  51 100 N6        30.01F

$$

NCZ024-NYZ072-PAZ021-071-VAZ022-071-250400-
OTHER REGIONAL OBSERVATIONS

CITY           SKY/WX    TMP DP  RH WIND       PRES   REMARKS
NEW YORK CITY  CLOUDY    53  43  68 E9        30.16S
PHILADELPHIA   LGT RAIN  53  43  68 E14G24    30.07F
PITTSBURGH     CLOUDY    54  45  71 E10       29.96F
ROANOKE        LGT RAIN  51  50  96 NE12      29.89S
RICHMOND       CLOUDY    55  55 100 NE17G25   29.89F
RALEIGH        RAIN      60  58  92 NE14G22   29.68F FOG

$$

ANZ530>537-250400-
MARINE OBSERVATIONS

STATION/POSITION TIME  TEMP    WIND        PRES
                       AIR SEA DIR/SP/G
                 (UTC) (F)     (DEG/KT/KT) (MB)
THOMAS PT LIGHT  0300   53 56   50/ 16/ 18   N/A
BALT KEY BRIDGE  0248   52      40/  9/ 11 1016.8F
COVE POINT       0248   54      90/ 24/ 29 1014.9F
LEWISETTA        0248   56 61   80/ 17/ 22 1013.5F
SOLOMONS ISLAND  0242   54 60   40/  8/ 12   N/A
PINEY POINT      0248           80/ 14/ 17   N/A

$$




USA.gov is the U.S. government's official web portal to all federal, state and local government web resources and services.